AF7DW Weather Reports


Display with metric or nautical units.
time (UTC)temp
F
wind
direction
speed
MPH
gust
MPH
rain 1hr
in
rain 24hr
in
rain mn
in
humidity
%
barometer
mb
20260505065039 59 0 2.0 10.0 0.00 0.00 0.00 53 1009.9
20260505064543 59 0 1.0 8.0 0.00 0.00 0.00 52 1009.9
20260505064039 59 0 0.0 6.0 0.00 0.00 0.00 51 1010.0
20260505063539 60 0 0.0 6.0 0.00 0.00 0.00 51 1009.9
20260505063055 60 0 0.0 9.0 0.00 0.00 0.00 50 1009.9
20260505062541 60 0 0.0 9.0 0.00 0.00 0.00 49 1009.8
20260505062038 60 271 3.0 9.0 0.00 0.00 0.00 48 1009.6
20260505061557 60 0 0.0 7.0 0.00 0.00 0.00 46 1009.4
20260505061041 60 0 2.0 7.0 0.00 0.00 0.00 46 1009.3
20260505060539 60 248 1.0 9.0 0.00 0.00 0.00 46 1009.2
20260505060100 60 307 1.0 9.0 0.00 0.00 0.00 45 1009.1
20260505055539 60 0 0.0 9.0 0.00 0.00 0.00 44 1009.1
20260505055041 60 0 1.0 5.0 0.00 0.00 0.00 43 1009.0
20260505054553 61 0 0.0 4.0 0.00 0.00 0.00 43 1008.9
20260505054040 61 0 0.0 4.0 0.00 0.00 0.00 44 1008.8
20260505053538 61 15 1.0 4.0 0.00 0.00 0.00 43 1008.9
20260505053052 61 0 0.0 3.0 0.00 0.00 0.00 43 1009.0
20260505052537 61 0 0.0 3.0 0.00 0.00 0.00 43 1009.0
20260505052038 61 345 0.0 3.0 0.00 0.00 0.00 43 1009.0
20260505051550 61 0 0.0 3.0 0.00 0.00 0.00 42 1009.0
20260505051039 61 0 0.0 3.0 0.00 0.00 0.00 42 1009.0
20260505050537 61 0 0.0 3.0 0.00 0.00 0.00 41 1008.8
20260505041601 62 70 0.0 5.0 0.00 0.00 0.00 38 1007.7
20260505041038 62 0 0.0 5.0 0.00 0.00 0.00 37 1007.6
20260505040538 62 18 1.0 5.0 0.00 0.00 0.00 37 1007.4
20260505040050 62 0 0.0 5.0 0.00 0.00 0.00 37 1007.5
20260505035539 62 30 1.0 5.0 0.00 0.00 0.00 37 1007.4
20260505035041 62 0 0.0 0.0 0.00 0.00 0.00 37 1007.3
20260505034550 62 0 0.0 0.0 0.00 0.00 0.00 36 1007.3
20260505034039 63 0 0.0 0.0 0.00 0.00 0.00 36 1007.2
20260505033539 63 0 0.0 0.0 0.00 0.00 0.00 36 1007.2
20260505033049 63 0 0.0 0.0 0.00 0.00 0.00 35 1007.2
20260505032541 63 0 0.0 0.0 0.00 0.00 0.00 35 1007.1
20260505032038 63 0 0.0 0.0 0.00 0.00 0.00 35 1007.0
20260505031547 63 0 0.0 0.0 0.00 0.00 0.00 35 1007.0
20260505031038 64 0 0.0 0.0 0.00 0.00 0.00 35 1006.9
20260505030539 64 0 0.0 0.0 0.00 0.00 0.00 34 1006.9
20260505030108 64 0 0.0 0.0 0.00 0.00 0.00 33 1006.9
20260505025539 64 0 0.0 0.0 0.00 0.00 0.00 33 1006.9
20260505025038 65 0 0.0 0.0 0.00 0.00 0.00 33 1006.8
20260505024548 65 0 0.0 0.0 0.00 0.00 0.00 33 1006.8
20260505024037 65 0 0.0 0.0 0.00 0.00 0.00 33 1006.8
20260505023537 66 0 0.0 0.0 0.00 0.00 0.00 32 1006.8
20260505023051 66 0 0.0 0.0 0.00 0.00 0.00 31 1006.7
20260505022537 66 0 0.0 0.0 0.00 0.00 0.00 31 1006.6
20260505022038 66 0 0.0 0.0 0.00 0.00 0.00 31 1006.6
20260505021543 67 0 0.0 0.0 0.00 0.00 0.00 30 1006.5
20260505021040 67 0 0.0 1.0 0.00 0.00 0.00 29 1006.6
20260505020541 67 0 0.0 2.0 0.00 0.00 0.00 29 1006.6
20260505020050 67 0 0.0 3.0 0.00 0.00 0.00 30 1006.5
20260505015537 67 0 0.0 3.0 0.00 0.00 0.00 29 1006.5
20260505015040 68 0 0.0 6.0 0.00 0.00 0.00 30 1006.5
20260505014607 68 117 0.0 6.0 0.00 0.00 0.00 30 1006.4
20260505014038 68 229 1.0 6.0 0.00 0.00 0.00 29 1006.4
20260505013540 68 0 1.0 5.0 0.00 0.00 0.00 29 1006.5
20260505013056 68 155 0.0 4.0 0.00 0.00 0.00 29 1006.5
20260505012538 69 0 0.0 4.0 0.00 0.00 0.00 29 1006.6
20260505012039 69 0 0.0 4.0 0.00 0.00 0.00 28 1006.7
20260505011552 69 0 0.0 4.0 0.00 0.00 0.00 29 1006.7
20260505011040 69 211 0.0 1.0 0.00 0.00 0.00 29 1006.7
20260505010540 69 0 0.0 6.0 0.00 0.00 0.00 29 1006.7
20260505010059 69 0 0.0 7.0 0.00 0.00 0.00 29 1006.8
20260505005539 70 0 0.0 8.0 0.00 0.00 0.00 29 1006.7
20260505005041 70 273 2.0 8.0 0.00 0.00 0.00 28 1006.8
20260505004551 70 0 0.0 0.0 0.00 0.00 0.00 29 1006.8
20260505004040 70 0 0.0 7.0 0.00 0.00 0.00 28 1006.8
20260505003538 70 0 0.0 10.0 0.00 0.00 0.00 28 1006.8
20260505003058 70 300 1.0 10.0 0.00 0.00 0.00 28 1006.9
20260505002540 70 245 2.0 10.0 0.00 0.00 0.00 28 1006.9
20260505002041 70 0 0.0 0.0 0.00 0.00 0.00 28 1007.0
20260505001546 70 0 0.0 5.0 0.00 0.00 0.00 28 1007.1
20260505001038 70 0 0.0 6.0 0.00 0.00 0.00 29 1007.1
20260505000538 70 0 1.0 6.0 0.00 0.00 0.00 28 1007.1
20260505000051 70 161 0.0 7.0 0.00 0.00 0.00 29 1007.1
20260504235539 71 328 0.0 7.0 0.00 0.00 0.00 30 1007.1
20260504235038 71 214 0.0 10.0 0.00 0.00 0.00 30 1007.2
20260504234545 71 284 3.0 10.0 0.00 0.00 0.00 30 1007.2
20260504234037 71 0 1.0 8.0 0.00 0.00 0.00 30 1007.2
20260504233537 71 0 0.0 9.0 0.00 0.00 0.00 30 1007.2
20260504233050 71 0 0.0 12.0 0.00 0.00 0.00 30 1007.1
20260504232537 71 261 3.0 12.0 0.00 0.00 0.00 30 1007.1
20260504232039 71 271 3.0 9.0 0.00 0.00 0.00 28 1007.1
20260504231549 73 209 1.0 10.0 0.00 0.00 0.00 29 1007.0
20260504231040 73 275 2.0 10.0 0.00 0.00 0.00 25 1007.0
20260504230541 73 72 0.0 5.0 0.00 0.00 0.00 24 1006.8
20260504230049 74 0 0.0 5.0 0.00 0.00 0.00 21 1006.9
20260504225539 74 284 1.0 6.0 0.00 0.00 0.00 22 1006.9
20260504225039 75 0 0.0 9.0 0.00 0.00 0.00 22 1007.0
20260504224545 75 0 2.0 9.0 0.00 0.00 0.00 22 1007.0
20260504224041 75 0 1.0 9.0 0.00 0.00 0.00 22 1007.0
20260504223537 75 0 0.0 7.0 0.00 0.00 0.00 22 1007.0
20260504223104 75 265 0.0 10.0 0.00 0.00 0.00 25 1007.0
20260504222541 75 0 1.0 10.0 0.00 0.00 0.00 22 1007.0
20260504222041 76 284 2.0 10.0 0.00 0.00 0.00 21 1007.0
20260504221548 76 49 0.0 4.0 0.00 0.00 0.00 21 1007.0
20260504221041 75 0 1.0 7.0 0.00 0.00 0.00 20 1007.0
20260504220542 76 334 0.0 8.0 0.00 0.00 0.00 20 1007.1
20260504220051 77 308 2.0 8.0 0.00 0.00 0.00 20 1007.1
20260504215539 76 10 3.0 8.0 0.00 0.00 0.00 23 1007.2
20260504215041 76 0 0.0 7.0 0.00 0.00 0.00 23 1007.3
20260504214548 76 0 0.0 9.0 0.00 0.00 0.00 25 1007.3
20260504214041 75 0 2.0 9.0 0.00 0.00 0.00 26 1007.5
20260504213538 75 254 3.0 9.0 0.00 0.00 0.00 24 1007.5
20260504213046 75 280 3.0 9.0 0.00 0.00 0.00 24 1007.6
20260504212542 75 319 0.0 8.0 0.00 0.00 0.00 23 1007.6
20260504212039 75 178 0.0 8.0 0.00 0.00 0.00 21 1007.7
20260504211624 75 262 2.0 11.0 0.00 0.00 0.00 23 1007.7
20260504211040 75 299 1.0 11.0 0.00 0.00 0.00 26 1007.8
20260504210541 75 224 1.0 11.0 0.00 0.00 0.00 25 1008.0
20260504210052 75 0 3.0 11.0 0.00 0.00 0.00 26 1008.0
20260504205539 75 225 1.0 5.0 0.00 0.00 0.00 27 1008.1
20260504205040 75 0 0.0 6.0 0.00 0.00 0.00 23 1008.1
20260504204546 75 130 0.0 7.0 0.00 0.00 0.00 22 1008.1
20260504204041 75 205 0.0 7.0 0.00 0.00 0.00 24 1008.2
20260504203542 75 260 0.0 7.0 0.00 0.00 0.00 24 1008.2
20260504203050 75 250 1.0 8.0 0.00 0.00 0.00 23 1008.3
20260504202541 75 261 0.0 8.0 0.00 0.00 0.00 24 1008.3
20260504202040 75 0 0.0 10.0 0.00 0.00 0.00 24 1008.4
20260504201552 76 180 1.0 10.0 0.00 0.00 0.00 27 1008.4
20260504201040 75 0 2.0 10.0 0.00 0.00 0.00 25 1008.4
20260504200539 75 0 1.0 10.0 0.00 0.00 0.00 26 1008.5
20260504200054 75 0 0.0 7.0 0.00 0.00 0.00 28 1008.6
20260504195537 74 177 1.0 8.0 0.00 0.00 0.00 27 1008.6
20260504195039 75 257 1.0 8.0 0.00 0.00 0.00 26 1008.7
20260504194549 75 0 1.0 9.0 0.00 0.00 0.00 26 1008.7
20260504194037 75 301 3.0 9.0 0.00 0.00 0.00 28 1008.7
20260504193541 75 347 1.0 7.0 0.00 0.00 0.00 28 1008.8
20260504193051 74 40 0.0 7.0 0.00 0.00 0.00 28 1008.8
20260504192538 74 0 1.0 4.0 0.00 0.00 0.00 26 1008.9
20260504192040 74 0 0.0 2.0 0.00 0.00 0.00 27 1008.8
20260504191607 73 0 0.0 3.0 0.00 0.00 0.00 28 1008.8
20260504191041 74 0 0.0 3.0 0.00 0.00 0.00 26 1009.0
20260504190539 74 0 0.0 4.0 0.00 0.00 0.00 26 1009.1
20260504190105 74 159 1.0 4.0 0.00 0.00 0.00 26 1009.2
20260504185538 74 211 0.0 4.0 0.00 0.00 0.00 28 1009.2
20260504185038 73 0 0.0 7.0 0.00 0.00 0.00 27 1009.4
20260504184552 74 0 1.0 7.0 0.00 0.00 0.00 25 1009.3
20260504184038 74 0 0.0 5.0 0.00 0.00 0.00 27 1009.5
20260504183538 74 0 0.0 0.0 0.00 0.00 0.00 26 1009.6
20260504183048 74 0 0.0 6.0 0.00 0.00 0.00 28 1009.6
20260504182540 73 0 0.0 8.0 0.00 0.00 0.00 28 1009.7
20260504182038 73 0 1.0 8.0 0.00 0.00 0.00 28 1009.7
20260504181553 73 249 2.0 8.0 0.00 0.00 0.00 27 1009.8
20260504181041 73 237 1.0 7.0 0.00 0.00 0.00 30 1009.8
20260504180538 73 0 0.0 6.0 0.00 0.00 0.00 29 1009.9
20260504180052 73 185 1.0 6.0 0.00 0.00 0.00 28 1009.9
20260504175540 73 0 1.0 6.0 0.00 0.00 0.00 29 1010.0
20260504175041 73 0 0.0 4.0 0.00 0.00 0.00 31 1010.0
20260504174549 72 0 0.0 4.0 0.00 0.00 0.00 31 1010.0
20260504174041 71 337 0.0 3.0 0.00 0.00 0.00 32 1010.0
20260504173541 71 0 0.0 0.0 0.00 0.00 0.00 28 1010.1
20260504173054 71 0 0.0 5.0 0.00 0.00 0.00 29 1010.2
20260504172540 71 0 0.0 5.0 0.00 0.00 0.00 29 1010.2
20260504172042 71 0 1.0 5.0 0.00 0.00 0.00 30 1010.3
20260504171547 71 349 0.0 2.0 0.00 0.00 0.00 31 1010.3
20260504171039 71 132 0.0 3.0 0.00 0.00 0.00 28 1010.4
20260504170539 71 156 0.0 4.0 0.00 0.00 0.00 28 1010.4
20260504151042 65 0 0.0 0.0 0.00 0.00 0.00 34 1010.6
20260504150540 65 0 0.0 0.0 0.00 0.00 0.00 34 1010.6
20260504141042 57 26 0.0 5.0 0.00 0.00 0.00 44 1010.6
20260504140543 57 24 1.0 5.0 0.00 0.00 0.00 42 1010.7
20260504130541 55 20 1.0 4.0 0.00 0.00 0.00 39 1010.8
20260504110540 58 352 0.0 3.0 0.00 0.00 0.00 31 1010.9
20260504100541 58 0 2.0 11.0 0.00 0.00 0.00 29 1010.7
20260504081553 62 78 2.0 8.0 0.00 0.00 0.00 20 1009.3
20260504081041 62 111 1.0 8.0 0.00 0.00 0.00 21 1009.4
20260504080542 61 106 1.0 4.0 0.00 0.00 0.00 22 1009.4